Regional Weather Roundup
Issued by NWS

Home | Current Version | Previous Version | Text Only | Print | Product List | Glossary Off
Versions: 1 2 3 4 5 6 7 8 9 10 11 12 13 14 15 16 17 18 19 20 21 22 23 24 25 26 27 28 29 30 31 32 33 34 35 36 37 38 39 40 41 42 43 44 45 46 47 48 49 50

000
ASUS43 KBIS 302110
RWRND

NORTH DAKOTA REGIONAL WEATHER ROUNDUP
NATIONAL WEATHER SERVICE BISMARCK ND
400 PM CDT WED JUL 30 2014

NOTE: "FAIR" INDICATES FEW OR NO CLOUDS BELOW 12,000 FEET WITH NO
SIGNIFICANT WEATHER AND/OR OBSTRUCTIONS TO VISIBILITY.


NDZ001>003-009>011-017-302200-
NORTHWEST NORTH DAKOTA

CITY           SKY/WX    TMP DP  RH WIND       PRES   REMARKS
WILLISTON      SUNNY     84  47  27 NE10      30.15F
MINOT          SUNNY     79  51  37 N6        30.13F
MINOT AFB      SUNNY     79  57  46 NW8       30.13F
$$

NDZ018>021-031>035-040>046-302200-
SOUTHWEST NORTH DAKOTA

CITY           SKY/WX    TMP DP  RH WIND       PRES   REMARKS
BISMARCK       PTSUNNY   81  55  40 SE3       30.13S
DICKINSON      MOSUNNY   82  52  35 N7        30.15F
GARRISON         N/A     77  58  51 N5        30.14F
HETTINGER ARPT MOSUNNY   81  51  35 NE10      30.17F
$$

NDZ004>008-012>016-024-026-027-054-302200-
NORTHEAST NORTH DAKOTA

CITY           SKY/WX    TMP DP  RH WIND       PRES   REMARKS
GRAND FORKS    MOSUNNY   81  58  45 N7        30.06F
GRND FRKS AFB  MOSUNNY   80  56  43 N12       30.08F
DEVILS LAKE    MOSUNNY   79  55  44 NW10      30.10F
$$

NDZ022-023-025-028>030-036>039-047>053-302200-
SOUTHEAST NORTH DAKOTA

CITY           SKY/WX    TMP DP  RH WIND       PRES   REMARKS
FARGO          MOSUNNY   82  53  36 NW10      30.08S
JAMESTOWN      SUNNY     79  50  36 W7        30.12F
$$



USA.gov is the U.S. government's official web portal to all federal, state and local government web resources and services.